[[{"header":{"parameterUnit":"m.s-1","parameterCategory":1,"la1":30.2991,"la2":30.254,"lo1":-89.0895,"lo2":-89.0444,"dy":0.0017,"dx":0.0017,"nx":28,"ny":28,"refTime":"2024-02-17T09:00:00:Z","depth":0,"parameterNumber":2,"parameterNumberName":"U-component_of_WINDS"},"data":[0,0,0,0,0,0,0,0,0,0,0,0,0,0,0,0,0,0,0,0,0,0,0,0,0,0,0,0,0,0,0,0,0,0,0,0,0,0,0,0,0,0,0,0,0,0,0,0,0,0,0,0,0,0,0,0,0,0,0.6499,0.6498,0,0.6444,0.6443,0.6443,0.644,0.6441,0.6441,0.6442,0.6382,0.6379,0.6377,0,0,0,0,0,0,0,0,0,0,0,0,0,0.6598,0.6596,0.6499,0.6498,0.6498,0.6444,0.6443,0.6443,0.644,0.6441,0.6442,0.6442,0.6382,0.638,0.6377,0,0,0,0,0,0,0,0,0,0,0,0,0,0.655,0.6596,0.6499,0.649,0.6489,0.6444,0.6443,0.6442,0.644,0.6441,0.6442,0.6443,0.6383,0.638,0.6377,0.6336,0,0,0.6367,0.6365,0,0,0,0,0,0,0,0,0.6553,0.6547,0.6492,0.6491,0.6489,0.645,0.6456,0.6407,0.644,0.6458,0.6442,0.6443,0.6403,0.6398,0.6386,0.6334,0.6331,0.6366,0.6364,0.6363,0.6362,0,0,0,0,0,0,0,0.6556,0.6549,0.6477,0.6491,0.6489,0.6487,0.6482,0.6447,0.6426,0.6457,0.6456,0.645,0.6403,0.6389,0.6384,0.633,0.6366,0.6363,0.6361,0.636,0.6241,0.624,0,0,0,0,0,0,0.6562,0.6552,0.6479,0.6475,0.6524,0.6485,0.6479,0.6461,0.6426,0.6422,0.6449,0.645,0.6394,0.6388,0.6382,0.6332,0.6363,0.636,0.6358,0.6242,0.6241,0.624,0,0,0,0,0,0,0.6564,0.6555,0.6481,0.6514,0.6504,0.6482,0.6463,0.646,0.6446,0.6421,0.6417,0.6439,0.6395,0.6387,0.6348,0.633,0.6358,0.6355,0.6244,0.6242,0.624,0.6231,0,0,0,0,0,0,0.6567,0.6556,0.6541,0.6513,0.6502,0.6449,0.6462,0.6458,0.6441,0.6442,0.641,0.6406,0.6395,0.6353,0.6345,0.6325,0.6353,0.6245,0.6243,0.6241,0.6233,0.6229,0.6226,0,0,0,0,0,0.6571,0.654,0.6541,0.6532,0.6484,0.6448,0.6441,0.643,0.644,0.6424,0.6408,0.6407,0.6334,0.6349,0.634,0.6319,0.6246,0.6244,0.6241,0.6234,0.623,0.6226,0,0,0,0,0,0,0.6565,0.6536,0.6537,0.6497,0.6475,0.6447,0.6427,0.6426,0.64,0.6401,0.6388,0.6381,0.6342,0.6327,0.6345,0.6278,0.6291,0.6286,0.6289,0.6284,0.6281,0.6284,0.635,0,0,0,0,0,0.656,0.6535,0.651,0.6477,0.6466,0.6449,0.6433,0.6426,0.6403,0.6393,0.6374,0.635,0.6321,0.6302,0.6275,0.6231,0.6224,0.6213,0.6209,0.6207,0.6202,0.6177,0.6172,0.6231,0.6231,0.6231,0,0,0.6548,0.6529,0.6513,0.6476,0.6458,0.6431,0.6441,0.6412,0.6391,0.6388,0.635,0.6335,0.6307,0.6266,0.6247,0.6252,0.6184,0.6203,0.6202,0.6198,0.6174,0.6168,0.6163,0.6229,0.623,0.623,0,0,0.6511,0.6495,0.6465,0.6448,0.6421,0.641,0.6403,0.6376,0.6366,0.6329,0.6326,0.63,0.6252,0.6232,0.6215,0.6172,0.617,0.6164,0.6145,0.6121,0.6116,0.6112,0.6095,0.6089,0.616,0.616,0.6159,0,0.6498,0.6458,0.645,0.642,0.6403,0.6402,0.6371,0.6354,0.6319,0.6307,0.6314,0.6253,0.6234,0.6188,0.6177,0.6165,0.6155,0.6166,0.6118,0.6113,0.6109,0.6093,0.6086,0.6159,0.6159,0.6159,0.6159,0,0.6443,0.6416,0.6395,0.6363,0.6344,0.6314,0.6299,0.6281,0.6277,0.6264,0.6225,0.6203,0.617,0.6159,0.6154,0.6112,0.6116,0.6121,0.6133,0.6103,0.6087,0.6081,0.6158,0.6158,0.6158,0.6158,0,0,0.64,0.6365,0.6357,0.6342,0.6314,0.6291,0.6261,0.6231,0.6214,0.6191,0.6164,0.6124,0.6128,0.6109,0.6102,0.6081,0.6047,0.6088,0.6087,0.608,0.5997,0.5992,0.5985,0.6046,0.6045,0.6044,0.5998,0,0.6359,0.6306,0.6298,0.625,0.6224,0.6223,0.6196,0.6175,0.6163,0.6138,0.6124,0.6095,0.6104,0.6092,0.6072,0.6055,0.6029,0.6059,0.6019,0.6018,0.6024,0.5977,0.5971,0.5929,0.5992,0.5991,0.5991,0,0.6303,0.6279,0.623,0.6205,0.6193,0.617,0.6141,0.6118,0.6093,0.6086,0.6066,0.6061,0.6029,0.6044,0.5998,0.6018,0.6002,0.5992,0.599,0.5983,0.6001,0.5967,0.5915,0.5908,0.5981,0.5982,0.5983,0,0.6274,0.623,0.6194,0.6182,0.6152,0.6136,0.6122,0.6099,0.6081,0.6056,0.6044,0.6015,0.5999,0.5976,0.5963,0.5976,0.5918,0.5933,0.5909,0.5909,0.5894,0.5895,0.5837,0.5888,0.5888,0.5888,0.5888,0,0.6227,0.6197,0.6181,0.6159,0.6124,0.6115,0.6081,0.6068,0.6047,0.6022,0.6019,0.5995,0.5981,0.5954,0.5945,0.5907,0.59,0.5892,0.5889,0.5891,0.5891,0.5878,0.588,0.5886,0.5887,0.5887,0.5887,0,0.6188,0.6177,0.6137,0.6113,0.6106,0.6082,0.606,0.6038,0.6027,0.5995,0.5986,0.5968,0.5937,0.5923,0.5884,0.5877,0.5834,0.5834,0.5842,0.584,0.5817,0.5819,0.5746,0.5736,0.5796,0.5795,0.5795,0,0.6158,0.6134,0.6108,0.6091,0.6078,0.6051,0.6033,0.6024,0.6005,0.5976,0.5957,0.5926,0.59,0.585,0.5833,0.5803,0.5801,0.5778,0.5796,0.5798,0.5798,0.5799,0.5796,0.5774,0.5773,0.5773,0.5772,0,0.6105,0.6101,0.6076,0.6049,0.6028,0.6006,0.5984,0.5971,0.5958,0.5936,0.5905,0.5886,0.5847,0.5815,0.5784,0.5769,0.5767,0.5767,0.576,0.576,0.5764,0.576,0.583,0.5768,0.5768,0.5769,0.5769,0.5769,0.6068,0.6047,0.6025,0.5997,0.598,0.596,0.5938,0.5925,0.5899,0.5867,0.5863,0.5829,0.5805,0.5764,0.5748,0.572,0.5726,0.5715,0.5712,0.5709,0.5707,0.5771,0.5715,0.5715,0.5715,0.5715,0.5715,0,0.6013,0.5999,0.5974,0.5945,0.5922,0.5926,0.5902,0.5883,0.5853,0.5832,0.5808,0.5771,0.5741,0.5722,0.5691,0.5672,0.5671,0.5664,0.5664,0.5661,0.5705,0.5714,0.5666,0.5666,0.5666,0.5666,0.5666,0.5666,0.5982,0.5946,0.5939,0.5894,0.5881,0.5848,0.5834,0.5815,0.5798,0.5758,0.5734,0.5722,0.5701,0.5669,0.5641,0.5636,0.5624,0.5617,0.5612,0.5653,0.5658,0.5662,0.567,0.5615,0.5615,0.5569,0.5569,0.5568]},{"header":{"parameterUnit":"m.s-1","parameterCategory":1,"la1":30.2991,"la2":30.254,"lo1":-89.0895,"lo2":-89.0444,"dy":0.0017,"dx":0.0017,"nx":28,"ny":28,"refTime":"2024-02-17T09:00:00:Z","depth":0,"parameterNumber":3,"parameterNumberName":"V-component_of_WINDS"},"data":[0,0,0,0,0,0,0,0,0,0,0,0,0,0,0,0,0,0,0,0,0,0,0,0,0,0,0,0,0,0,0,0,0,0,0,0,0,0,0,0,0,0,0,0,0,0,0,0,0,0,0,0,0,0,0,0,0,0,-4.3544,-4.3545,0,-4.3656,-4.3657,-4.3658,-4.3598,-4.3595,-4.3592,-4.359,-4.37,-4.3706,-4.3712,0,0,0,0,0,0,0,0,0,0,0,0,0,-4.3274,-4.3279,-4.3544,-4.3545,-4.3547,-4.3656,-4.3657,-4.3659,-4.3599,-4.3595,-4.3592,-4.3588,-4.3698,-4.3705,-4.3712,0,0,0,0,0,0,0,0,0,0,0,0,0,-4.3389,-4.3281,-4.3544,-4.353,-4.353,-4.3655,-4.3657,-4.3659,-4.36,-4.3595,-4.3591,-4.3586,-4.3696,-4.3705,-4.3713,-4.3857,0,0,-4.374,-4.3743,0,0,0,0,0,0,0,0,-4.3383,-4.3399,-4.3531,-4.3531,-4.3531,-4.3609,-4.3603,-4.3725,-4.3601,-4.3573,-4.3589,-4.3584,-4.3673,-4.3683,-4.3714,-4.3862,-4.3867,-4.374,-4.3746,-4.3749,-4.3752,0,0,0,0,0,0,0,-4.3375,-4.3394,-4.3588,-4.3533,-4.3533,-4.3517,-4.3528,-4.3626,-4.3647,-4.3575,-4.3571,-4.3585,-4.3672,-4.3706,-4.3716,-4.3869,-4.374,-4.3748,-4.3753,-4.3756,-4.4139,-4.4144,0,0,0,0,0,0,-4.3368,-4.3388,-4.3584,-4.3591,-4.3444,-4.3526,-4.3538,-4.3588,-4.3646,-4.365,-4.3589,-4.3582,-4.3694,-4.3706,-4.372,-4.3892,-4.3749,-4.3757,-4.3762,-4.4134,-4.414,-4.4145,0,0,0,0,0,0,-4.3363,-4.3386,-4.358,-4.3489,-4.3512,-4.3535,-4.3592,-4.3593,-4.3627,-4.3657,-4.366,-4.362,-4.3691,-4.3708,-4.3823,-4.3895,-4.3761,-4.3769,-4.4128,-4.4136,-4.4143,-4.4238,0,0,0,0,0,0,-4.3355,-4.3385,-4.3441,-4.349,-4.3517,-4.3683,-4.3596,-4.3598,-4.3642,-4.3634,-4.3686,-4.369,-4.3688,-4.3811,-4.3832,-4.3905,-4.3776,-4.4122,-4.4132,-4.414,-4.4228,-4.4248,-4.4264,0,0,0,0,0,-4.3346,-4.3462,-4.3444,-4.3468,-4.3588,-4.3688,-4.3703,-4.3699,-4.3648,-4.3704,-4.3723,-4.3689,-4.3884,-4.3823,-4.3847,-4.3923,-4.4117,-4.4129,-4.414,-4.422,-4.4244,-4.4264,0,0,0,0,0,0,-4.3419,-4.3469,-4.3449,-4.3585,-4.3633,-4.3677,-4.3748,-4.3724,-4.3786,-4.3776,-4.3767,-4.378,-4.39,-4.3922,-4.3854,-4.4065,-4.3992,-4.4009,-4.4046,-4.4068,-4.4086,-4.4078,-4.3783,0,0,0,0,0,-4.3452,-4.353,-4.3568,-4.3685,-4.371,-4.3725,-4.3768,-4.3761,-4.3809,-4.3829,-4.3856,-4.3904,-4.3975,-4.4023,-4.409,-4.4231,-4.4241,-4.4295,-4.4312,-4.4327,-4.4341,-4.4417,-4.4441,-4.4182,-4.4182,-4.4182,0,0,-4.3519,-4.3556,-4.3605,-4.37,-4.3736,-4.3816,-4.3742,-4.383,-4.3889,-4.3842,-4.3953,-4.3975,-4.4027,-4.4155,-4.4213,-4.4178,-4.4415,-4.4341,-4.4353,-4.4359,-4.4431,-4.4455,-4.4477,-4.419,-4.4188,-4.4187,0,0,-4.3683,-4.3719,-4.382,-4.3857,-4.3913,-4.3922,-4.3947,-4.3995,-4.4008,-4.412,-4.4086,-4.4155,-4.4279,-4.4317,-4.4353,-4.453,-4.4501,-4.4552,-4.4646,-4.4719,-4.4739,-4.4757,-4.4821,-4.4843,-4.4566,-4.4566,-4.4567,0,-4.3759,-4.388,-4.3874,-4.3965,-4.4007,-4.3969,-4.4071,-4.4107,-4.4182,-4.4212,-4.4171,-4.4326,-4.4358,-4.4495,-4.4538,-4.4568,-4.4595,-4.4547,-4.4737,-4.4755,-4.4772,-4.4832,-4.4856,-4.4572,-4.4572,-4.4571,-4.4571,0,-4.3971,-4.4055,-4.4129,-4.4204,-4.4254,-4.435,-4.4358,-4.4409,-4.4397,-4.441,-4.4524,-4.4561,-4.4635,-4.4667,-4.4656,-4.4802,-4.4779,-4.4738,-4.4665,-4.4803,-4.4859,-4.4882,-4.4581,-4.4579,-4.4577,-4.4575,0,0,-4.4185,-4.4255,-4.4283,-4.4316,-4.4374,-4.4438,-4.4531,-4.4605,-4.465,-4.4702,-4.4779,-4.4884,-4.4847,-4.4888,-4.488,-4.4945,-4.5083,-4.4896,-4.4897,-4.493,-4.5246,-4.5276,-4.5303,-4.5063,-4.5067,-4.5071,-4.5241,0,-4.4353,-4.4518,-4.4515,-4.4667,-4.4744,-4.4709,-4.4789,-4.4833,-4.4848,-4.4914,-4.4928,-4.5003,-4.4948,-4.4973,-4.5035,-4.5053,-4.5146,-4.504,-4.5134,-4.5137,-4.5123,-4.5333,-4.5366,-4.5525,-4.5263,-4.5267,-4.527,0,-4.4571,-4.4632,-4.4793,-4.484,-4.4872,-4.4945,-4.5012,-4.5076,-4.5124,-4.513,-4.5175,-4.5157,-4.525,-4.5174,-4.5301,-4.523,-4.5267,-4.5282,-4.5288,-4.5297,-4.5212,-4.5348,-4.5575,-4.56,-4.5304,-4.5301,-4.5299,0,-4.4712,-4.4834,-4.4946,-4.4975,-4.5032,-4.5084,-4.511,-4.5154,-4.5199,-4.5256,-4.5285,-4.5353,-4.539,-4.5442,-4.5442,-4.5387,-4.5571,-4.5495,-4.5577,-4.5577,-4.5618,-4.5616,-4.5856,-4.5642,-4.5641,-4.5641,-4.564,0,-4.4901,-4.5,-4.501,-4.5079,-4.5188,-4.5183,-4.5292,-4.5312,-4.5351,-4.5422,-4.5395,-4.5462,-4.5458,-4.5525,-4.5525,-4.5631,-4.5647,-4.5654,-4.5653,-4.5657,-4.5656,-4.5682,-4.5671,-4.5647,-4.5646,-4.5645,-4.5644,0,-4.5077,-4.5087,-4.5207,-4.5251,-4.5265,-4.5344,-4.5381,-4.5445,-4.5457,-4.5547,-4.5567,-4.5585,-4.5663,-4.5668,-4.5757,-4.5757,-4.5885,-4.5872,-4.587,-4.5867,-4.5949,-4.5942,-4.6215,-4.625,-4.6013,-4.6015,-4.6017,0,-4.5197,-4.5273,-4.5325,-4.5372,-4.5401,-4.5476,-4.5521,-4.5518,-4.5566,-4.5627,-4.5684,-4.5759,-4.5819,-4.5944,-4.5964,-4.6032,-4.602,-4.6111,-4.603,-4.6032,-4.6022,-4.6018,-4.6025,-4.6127,-4.613,-4.6132,-4.6134,0,-4.5409,-4.541,-4.5477,-4.5547,-4.5602,-4.5656,-4.5706,-4.5745,-4.5748,-4.5803,-4.5883,-4.593,-4.6021,-4.6096,-4.6162,-4.6187,-4.6161,-4.6159,-4.6181,-4.6187,-4.6183,-4.6186,-4.5913,-4.6153,-4.6151,-4.6149,-4.6148,-4.6148,-4.5561,-4.5626,-4.5674,-4.5749,-4.5787,-4.5835,-4.5898,-4.5917,-4.5984,-4.6059,-4.6053,-4.6141,-4.6186,-4.6272,-4.6302,-4.637,-4.6339,-4.6372,-4.638,-4.6388,-4.6397,-4.6171,-4.6382,-4.6381,-4.6381,-4.638,-4.638,0,-4.5771,-4.58,-4.587,-4.5941,-4.6001,-4.5972,-4.6025,-4.6077,-4.6155,-4.62,-4.626,-4.6351,-4.6423,-4.6448,-4.6518,-4.6567,-4.6557,-4.6586,-4.6582,-4.6588,-4.6421,-4.6395,-4.6593,-4.6593,-4.6593,-4.6593,-4.6593,-4.6592,-4.5888,-4.5998,-4.6004,-4.6132,-4.6159,-4.6247,-4.628,-4.6323,-4.6358,-4.6462,-4.6522,-4.6539,-4.6575,-4.6647,-4.6711,-4.6717,-4.6744,-4.6778,-4.6778,-4.6621,-4.66,-4.658,-4.6555,-4.6783,-4.6784,-4.6939,-4.6941,-4.6942]}]]